EDT,Max TemperatureF,Mean TemperatureF,Min TemperatureF,Max Dew PointF,MeanDew PointF,Min DewpointF,Max Humidity, Mean Humidity, Min Humidity, Max Sea Level PressureIn, Mean Sea Level PressureIn, Min Sea Level PressureIn, Max VisibilityMiles, Mean VisibilityMiles, Min VisibilityMiles, Max Wind SpeedMPH, Mean Wind SpeedMPH, Max Gust SpeedMPH,PrecipitationIn, CloudCover, Events, WindDirDegrees
2012-10-1,70,59,48,56,49,44,86,70,42,29.95,29.92,29.89,10,9,4,5,1,,0.02,3,Rain,242
2012-10-2,66,62,59,61,58,55,90,86,82,29.97,29.94,29.91,7,3,0,5,0,,0.41,8,Fog-Rain,55
2012-10-3,78,70,64,66,63,61,94,84,64,30.11,30.03,29.94,10,5,0,4,0,,0.01,4,Fog-Rain,-1
2012-10-4,79,69,59,66,63,54,88,79,48,30.16,30.12,30.07,10,5,0,6,0,,0.04,4,Fog-Rain,230
2012-10-5,79,68,57,59,55,52,84,68,45,30.13,30.05,29.91,10,10,7,7,1,,0.00,0,,310
2012-10-6,70,59,48,56,49,41,81,65,49,30.06,29.91,29.81,10,10,10,10,2,21,0.00,2,,262
2012-10-7,55,50,46,45,41,35,83,71,53,30.17,30.09,30.03,10,10,7,5,1,,0.04,7,Rain,180
2012-10-8,53,48,42,41,39,34,83,73,48,30.30,30.24,30.18,10,9,4,4,0,,0.12,5,Rain,240
2012-10-9,62,54,46,48,43,40,83,69,51,30.22,30.15,30.07,10,10,5,6,1,,0.00,7,,40
2012-10-10,66,57,48,48,44,38,87,70,43,30.06,29.98,29.85,10,7,2,10,2,22,0.00,4,,250
2012-10-11,61,53,45,37,32,28,74,49,33,30.26,30.20,30.12,10,10,10,9,3,16,0.00,0,,235
2012-10-12,71,54,41,39,34,27,68,51,28,30.43,30.23,30.12,10,10,2,12,2,22,0.00,1,,339
2012-10-13,63,48,34,37,30,24,76,57,29,30.53,30.42,30.25,10,10,10,8,1,,0.00,0,,230
2012-10-14,86,68,52,53,47,38,69,52,31,30.20,30.07,29.87,10,10,10,6,2,,0.00,3,,220
2012-10-15,71,65,59,61,53,43,83,62,44,29.84,29.73,29.66,10,9,2,9,4,20,0.24,5,Rain,223
2012-10-16,63,54,44,43,39,37,79,55,39,29.93,29.86,29.79,10,10,10,10,3,18,0.00,3,,257
2012-10-17,66,54,42,45,40,36,83,69,42,30.01,29.95,29.91,10,9,6,5,0,,0.00,0,,230
2012-10-18,66,57,48,55,49,45,88,80,54,29.94,29.88,29.82,10,5,1,5,0,,1.04,5,Rain-Thunderstorm,250
2012-10-19,69,62,55,58,55,44,94,84,58,29.82,29.72,29.60,10,4,0,8,1,,0.01,6,Fog-Rain,230
2012-10-20,63,57,48,43,39,36,69,52,39,29.92,29.77,29.65,10,10,10,8,4,22,0.00,2,,229
2012-10-21,63,54,45,41,38,36,74,56,38,30.14,30.05,29.93,10,10,10,9,4,16,0.00,1,,243
2012-10-22,69,57,45,46,41,36,74,58,39,30.20,30.14,30.09,10,10,10,8,1,,0.00,0,,240
2012-10-23,75,65,57,60,53,44,87,69,56,30.12,30.06,30.02,10,9,2,5,1,,0.03,3,Rain,210
2012-10-24,82,72,61,56,53,51,78,55,35,30.13,30.07,30.04,10,10,2,8,1,,0.01,3,,235
2012-10-25,68,63,57,57,55,51,82,75,54,30.22,30.17,30.09,10,4,0,5,0,,0.00,7,,48
2012-10-26,70,66,62,57,56,54,78,70,58,30.19,30.12,30.05,10,7,2,5,0,,0.00,8,,47
2012-10-27,69,65,62,56,53,50,77,66,52,30.05,29.96,29.88,10,10,8,8,1,,0.00,7,,34
2012-10-28,62,58,55,52,48,43,72,65,52,29.87,29.76,29.63,10,9,5,12,5,21,0.17,8,Rain,38
2012-10-29,55,50,46,48,44,41,97,72,64,29.60,29.21,28.59,10,4,2,18,10,34,2.83,8,Rain,338
2012-10-30,48,44,39,46,38,35,100,84,76,29.44,29.12,28.58,10,7,2,15,7,31,1.35,8,Rain,236
2012-10-31,46,42,39,36,34,32,81,68,56,29.62,29.53,29.41,10,10,10,9,5,21,0.03,8,Rain,222